Regional Weather Roundup
Issued by NWS

Home | Current Version | Previous Version | Graphics & Text | Print | Product List | Glossary On
Versions: 1 2 3 4 5 6 7 8 9 10 11 12 13 14 15 16 17 18 19 20 21 22 23 24 25 26 27 28 29 30 31 32 33 34 35 36 37 38 39 40 41 42 43 44 45 46 47 48 49 50
500
ASUS45 KABQ 232201
RWRNM
NEW MEXICO REGIONAL WEATHER ROUNDUP
NATIONAL WEATHER SERVICE ALBUQUERQUE NM
400 PM MDT SUN JUL 23 2017

NOTE: "FAIR" MEANS FEW OR NO CLOUDS BELOW 12,000 FEET AGL WITH NO
       SIGNIFICANT WEATHER OR OBSTRUCTIONS TO VISION.

      THIS PRODUCT IS RELEASED AS TWO VERSIONS.  ONE VERSION NEAR
      THE TOP OF THE HOUR CONTAINING PRELIMINARY DATA FROM ALBUQUERQUE
      AND OTHER STATIONS.  A FINAL VERSION WITH ADDITIONAL DATA IS
      ISSUED ABOUT 10 MINUTES AFTER THE HOUR.

NMZ501-503-504-510>518-232300-
NORTHWEST PLATEAU/NORTHCENTRAL MOUNTAINS

CITY           SKY/WX    TMP DP  RH WIND       PRES   REMARKS
FARMINGTON     FAIR      90  45  21 VRB7      30.08F
LOS ALAMOS     FAIR      78  45  30 N7        30.30F
SANTA FE       FAIR      81  47  30 SE8       30.21F
TAOS           FAIR      81  43  26 SE9       30.26F
ANGEL FIRE     CLOUDY    71  43  36 NE6G20    30.38F

$$
NMZ402-403-502-505>509-232300-
WESTCENTRAL MOUNTAINS/SOUTHWEST MOUNTAINS

CITY           SKY/WX    TMP DP  RH WIND       PRES   REMARKS
GALLUP         CLOUDY    83  45  26 S12       30.18F
GRANTS         PTSUNNY   82  44  26 CALM      30.20F
SILVER CITY    FAIR      84  57  38 S10G18    30.10F

$$
NMZ407-409-411-412-232300-
SOUTHERN DESERTS

CITY           SKY/WX    TMP DP  RH WIND       PRES   REMARKS
DEMING         CLOUDY    87  62  43 SE9       30.02F
LAS CRUCES     PTSUNNY   86  61  42 E21G28    30.05F THUNDER
HOLLOMAN AFB   FAIR      85  56  36 NE10      30.04F
ALAMOGORDO     FAIR      81  55  41 E7        30.05F
T OR C         FAIR      88  51  28 E6        30.06F

$$
NMZ519>523-232300-
CENTRAL VALLEYS/CENTRAL HIGHLANDS

CITY           SKY/WX    TMP DP  RH WIND       PRES   REMARKS
ALBUQUERQUE    PTSUNNY   86  51  29 SW6       30.11F
DOUBLE EAGLE   PTSUNNY  N/A N/A N/A E9G18     30.16F
MORIARTY ARPT  CLOUDY    74  57  54 N15       30.22S
CLINES CORNERS CLOUDY    75  50  41 NE9G18    30.27S
BELEN          NOT AVBL
SOCORRO        FAIR      87  56  34 SE20      30.08F

$$
NMZ524>526-539-540-232300-
SOUTHCENTRAL MOUNTAINS

CITY           SKY/WX    TMP DP  RH WIND       PRES   REMARKS
RUIDOSO        PTSUNNY   72  54  53 NE5       30.25F

$$
NMZ527>531-232300-
NORTHEAST HIGHLANDS/NORTHEAST PLAINS

CITY           SKY/WX    TMP DP  RH WIND       PRES   REMARKS
LAS VEGAS      CLOUDY    66  55  67 W13       30.31R
RATON          FAIR      84  45  25 E9        30.21F
CLAYTON        FAIR      87  55  33 NE16      30.13F

$$
NMZ532>537-232300-
EASTCENTRAL PLAINS

CITY           SKY/WX    TMP DP  RH WIND       PRES   REMARKS
SANTA ROSA     CLOUDY    77  59  52 NE26G36   30.12R
TUCUMCARI      PTSUNNY   81  62  52 S17       30.05S
CANNON AFB     PTSUNNY   77  61  56 N3        30.08F
CLOVIS AIRPORT FAIR      76  65  68 N3        30.07F

$$
NMZ028-029-538-232300-
SOUTHEAST PLAINS

CITY           SKY/WX    TMP DP  RH WIND       PRES   REMARKS
ROSWELL        FAIR      91  58  32 SE7       29.98F
ARTESIA        FAIR      88  61  40 VRB5G13   30.00F
CARLSBAD       FAIR      85  68  56 SE10      29.98F
HOBBS          MOSUNNY   88  59  37 S9        30.02F


$$




USA.gov is the U.S. government's official web portal to all federal, state and local government web resources and services.